Preview of NWS' New Version of Forecast
This preview is not operational and should not be used for support decisions.

Regional Weather Roundup (RWR)

Issued by National Weather Service (NWS)

                            
000
ASUS44 KMEG 211710
RWRTN 
TENNESSEE HOURLY STATE WEATHER ROUNDUP
NATIONAL WEATHER SERVICE MEMPHIS TN
1200 PM CDT SUN APR 21 2019

TNZ002-004-019-021-049-052-054-088>092-211800-
WEST TENNESSEE
  
CITY           SKY/WX    TMP DP  RH WIND       PRES   REMARKS
MEMPHIS INTL   FAIR      74  49  41 VRB7      30.10S                  
NWS MEMPHIS      N/A     74 N/A N/A MISG        N/A                   
JACKSON        FAIR      73  45  36 SW6       30.11S                  
DYERSBURG      FAIR      72  46  39 S6        30.10S                  
SOMERVILLE     SUNNY     75  46  35 SW8       30.10R                  
COVINGTON      SUNNY     73  50  43 S7        30.09S                  
UNION CITY     SUNNY     72  48  43 S5        30.09S                  
BOLIVAR        SUNNY     73  41  31 CALM      30.10S                  
PARIS          SUNNY     72  34  25 VRB5      30.10S                  
HUNTINGDON     SUNNY     73  43  33 S3        30.10S                  
LEXINGTON        N/A     72  43  35 SW7       30.11S                  
SELMER         SUNNY     72  39  30 VRB3      30.11S                  
SAVANNAH       SUNNY     72  45  37 CALM      30.11S                  
$$

TNZ008-025-027-028-033-062-065-066-211800-
NORTH MIDDLE TENNESSEE
  
CITY           SKY/WX    TMP DP  RH WIND       PRES   REMARKS
NASHVILLE      FAIR      68  43  40 CALM      30.14S                  
DICKSON        SUNNY     70  28  21 SW8       30.11S                  
PORTLAND       SUNNY     64  37  36 CALM      30.13R                  
CLARKSVILLE    FAIR      71  28  20 E3        30.11S                  
LEBANON        SUNNY     64  41  42 CALM      30.13S                  
SMYRNA         FAIR      65  37  35 VRB3      30.16R                  
MURFREESBORO   SUNNY     64  36  34 VRB3      30.13S                  
COOKEVILLE     SUNNY     59  45  58 CALM      30.14S                  
LIVINGSTON     SUNNY     59  41  51 VRB3      30.13R                  
GALLATIN       SUNNY     63  46  55 CALM      30.17S                  
CROSSVILLE     FAIR      61  27  27 N10G17    30.13S                  
ROCKWOOD       SUNNY     61  32  33 NW12G18   30.12S                  
$$

TNZ061-075-076-078-094-096-097-211800-
SOUTH MIDDLE TENNESSEE
  
CITY           SKY/WX    TMP DP  RH WIND       PRES   REMARKS
LAWRENCEBURG   SUNNY     68  34  28 SW5G14    30.13S                  
LEWISBURG      SUNNY     68  30  24 NE6       30.13S                  
FAYETTEVILLE   SUNNY     66  39  37 CALM      30.14S                  
TULLAHOMA      SUNNY     64  34  32 VRB5      30.14S                  
WINCHESTER     SUNNY     63  37  39 VRB5      30.15S                  
MCMINNVILLE    SUNNY     63  39  42 CALM      30.14F                  
COLUMBIA       SUNNY     70  27  19 N5        30.11S                  
SHELBYVILLE    SUNNY     66  32  28 CALM      30.14S                  
$$

TNZ017-018-042-046-047-211800-
NORTHEAST TENNESSEE
  
CITY           SKY/WX    TMP DP  RH WIND       PRES   REMARKS
TRI CITIES     CLOUDY    50  39  66 W5        30.12S                  
ELIZABETHTON   CLOUDY    50  41  71 W7        30.12S                  
GREENEVILLE    CLOUDY    50  41  71 W5        30.12S                  
$$

TNZ012-013-036-069-073-074-211800-
CENTRAL EAST TENNESSEE
  
CITY           SKY/WX    TMP DP  RH WIND       PRES   REMARKS
KNOXVILLE      PTSUNNY   58  43  57 S6        30.12S                  
OAK RIDGE      FAIR      60  42  51 CALM      30.13F                  
DOWNTOWN KNOXV PTSUNNY   57  45  62 VRB3      30.13F                  
GATLINBURG     CLOUDY    55  45  67 VRB5      30.13S                  
MORRISTOWN     CLOUDY    52  45  76 VRB5G12   30.12S                  
JACKSBORO      SUNNY     61  43  51 VRB3      30.14F                  
$$

TNZ083-085-099-211800-
SOUTHEAST TENNESSEE
  
CITY           SKY/WX    TMP DP  RH WIND       PRES   REMARKS
CHATTANOOGA    FAIR      66  40  38 VRB3      30.14S                  
DAYTON         SUNNY     63  43  48 E5        30.12S                  
$$

SKY/WX REPORTED AS FAIR MEANS FEW OR NO CLOUDS BELOW
12 THOUSAND FEET.